Theta_e
350 350 348 351 350 350 351 351 351 351 350 350 350 350 349 349 349 349 350 349 349 351 353 352 350 349 346 346 346 345 344 344 345 346 346 346 347 346 345 345 344 342 341 340 340 339 339 338 338 336 335 336 336 341 341 341 341 340 339 338 337 334
349 350 351 348 350 353 351 350 349 351 349 351 350 350 351 350 349 349 348 350 352 352 353 351 350 347 348 348 347 345 344 344 345 345 345 345 346 345 345 344 343 342 341 340 340 340 340 339 338 337 336 336 340 340 342 341 340 337 338 338 336 335
349 349 351 350 351 353 349 352 350 350 350 348 349 350 349 348 349 348 351 350 353 355 353 352 351 347 348 345 347 344 344 344 344 344 345 345 345 344 344 343 343 342 341 340 342 340 339 337 337 337 336 341 341 340 341 341 342 341 338 337 335 334
351 353 350 350 351 352 352 352 348 349 349 350 349 349 349 349 347 349 350 354 354 354 354 353 348 347 347 347 347 345 344 343 343 344 345 346 345 344 343 342 342 342 342 344 344 341 339 338 336 340 342 338 337 339 342 341 337 339 339 336 335 334
354 354 353 352 353 351 352 348 348 349 348 347 349 349 349 349 349 349 351 352 352 353 352 351 352 350 347 346 346 345 343 342 343 345 344 345 345 343 342 341 342 341 345 344 342 342 341 339 341 340 339 338 339 340 339 339 338 338 338 337 335 333
354 355 353 351 351 351 351 349 348 348 348 349 349 349 349 350 350 352 352 351 351 352 350 349 350 349 348 348 343 343 340 341 342 342 344 343 341 340 342 341 340 342 343 344 342 341 340 340 339 338 338 339 339 340 338 337 339 338 338 336 335 333
352 351 351 351 351 351 349 349 348 348 347 348 350 350 349 350 351 351 352 351 350 348 347 346 348 349 348 348 344 343 342 343 341 339 342 342 341 341 341 342 343 345 343 342 340 339 339 339 340 338 339 339 339 338 338 339 339 338 339 337 335 332
350 350 351 351 350 349 350 349 348 348 348 347 349 348 347 350 353 352 352 351 350 347 345 344 347 348 347 345 345 345 343 342 340 339 340 340 340 339 341 343 344 343 341 340 338 339 338 339 340 342 339 340 339 339 339 338 340 339 337 336 334 333
350 350 351 351 349 348 350 349 349 348 347 347 348 348 349 352 352 352 350 349 348 347 345 347 347 347 348 346 347 345 342 341 341 340 341 341 339 339 339 342 343 342 342 340 338 339 338 340 342 342 340 339 339 339 339 339 339 337 338 338 338 334
351 350 352 352 350 349 350 350 348 349 347 348 347 349 350 351 352 350 348 349 348 347 348 348 347 347 346 346 347 347 343 342 341 341 341 339 339 339 340 342 343 341 339 339 338 339 339 340 341 340 339 338 337 337 338 337 338 337 336 338 337 336
351 351 353 352 351 349 351 350 350 351 350 349 349 349 350 350 350 349 347 348 346 347 347 347 348 347 347 346 346 347 345 343 341 342 340 338 341 341 342 340 343 340 341 339 339 339 339 339 340 341 340 338 338 339 338 338 337 336 335 336 335 334
351 352 352 351 351 350 350 350 351 350 351 350 351 349 349 349 350 349 347 347 347 347 347 346 348 348 347 345 344 345 343 342 340 340 340 339 340 341 342 342 342 341 342 342 341 340 342 340 340 340 340 337 338 339 337 336 336 336 337 337 336 334
350 350 350 349 348 348 350 349 349 349 349 349 350 349 348 349 349 349 349 347 347 347 346 344 348 347 345 344 344 343 341 341 341 340 340 340 340 341 342 341 341 342 341 341 340 340 340 341 340 339 341 340 340 339 338 336 335 335 334 337 339 338
348 347 348 349 348 348 349 349 348 349 349 348 348 347 347 349 349 348 348 346 346 344 346 345 345 346 345 343 344 343 341 340 341 342 340 341 339 339 337 338 338 339 337 338 338 339 337 337 338 340 340 341 339 340 338 337 335 334 334 336 340 341
341 346 347 347 345 347 348 346 347 348 349 348 346 345 346 346 347 347 345 345 346 345 341 346 345 344 344 345 344 343 341 339 341 342 340 340 339 339 338 337 337 337 339 338 338 338 337 337 337 337 339 339 338 339 340 337 335 334 333 335 339 340
343 345 344 344 345 344 346 346 347 346 349 348 344 344 345 346 346 346 345 344 346 347 346 346 345 345 345 344 342 342 343 341 341 341 340 340 340 337 337 337 338 338 336 336 336 336 337 336 337 337 338 340 339 338 338 336 335 333 334 335 335 338
345 346 345 346 346 346 345 345 346 347 348 348 345 343 345 349 347 346 344 342 346 347 344 342 342 345 345 344 342 341 343 342 342 341 340 340 338 337 339 338 338 339 338 336 335 334 335 337 336 338 341 340 338 337 338 336 334 333 334 334 334 334
346 346 345 346 347 346 345 345 346 346 346 345 345 345 346 346 346 345 344 342 345 345 348 341 342 346 346 346 343 342 343 344 342 341 339 338 337 338 340 340 338 339 338 338 335 335 336 336 336 339 339 338 337 336 337 335 334 332 332 332 334 334
344 343 343 344 345 345 347 347 347 347 346 345 344 344 346 344 344 345 344 344 343 346 343 341 342 340 344 345 342 342 343 343 341 339 338 336 337 337 338 341 339 338 340 340 336 338 337 337 337 338 336 336 335 336 337 335 333 332 335 335 335 335
343 343 342 342 341 342 344 343 340 341 342 342 342 341 343 343 344 343 345 344 345 347 341 342 340 342 345 340 339 339 340 342 340 338 337 336 335 335 337 341 342 340 339 340 340 340 340 338 337 337 334 335 336 338 336 334 333 334 335 336 337 337
340 341 340 339 340 339 339 339 339 338 338 340 341 341 341 342 341 341 344 344 344 344 343 343 344 344 343 342 340 339 336 337 340 337 337 336 338 339 340 340 340 340 338 336 338 340 340 338 334 332 333 334 334 338 335 333 334 335 335 336 337 336
339 340 340 341 341 340 341 340 339 339 340 340 340 338 339 341 341 341 343 342 343 343 345 342 343 343 344 344 342 338 338 337 338 338 337 338 338 338 339 338 338 337 339 337 337 339 338 335 330 329 326 327 330 333 333 333 333 335 336 334 337 338
339 339 340 340 340 339 341 342 341 341 340 340 343 342 341 341 342 341 341 342 342 343 344 342 343 343 343 344 342 338 337 337 337 337 336 336 341 338 339 337 338 337 336 338 336 339 339 338 330 331 332 328 323 322 329 330 335 334 334 336 337 335
338 340 340 340 339 341 342 342 343 343 343 341 340 340 341 342 341 341 340 342 342 344 343 343 343 342 343 345 345 344 342 340 338 338 338 336 334 334 336 336 337 338 337 332 332 334 339 338 337 330 324 323 326 324 320 325 328 333 336 336 335 334
339 339 339 340 340 340 341 341 341 341 341 339 340 337 338 338 338 338 339 341 341 341 341 341 341 343 344 345 344 343 340 336 335 337 337 336 335 333 339 340 338 337 335 333 332 336 337 339 335 336 331 325 323 321 323 326 328 328 333 332 333 333
339 339 339 340 342 341 340 339 337 335 333 333 331 332 334 335 337 337 336 340 341 340 340 341 342 342 342 341 342 341 338 334 335 336 336 336 337 337 335 339 338 337 333 335 335 334 333 336 335 336 335 336 331 324 324 327 326 321 332 333 331 331
335 336 338 339 341 341 340 340 338 336 336 334 332 335 338 340 339 338 340 339 340 342 341 339 341 342 341 340 341 342 340 337 336 336 335 335 335 334 337 336 337 337 337 336 336 331 332 333 336 336 336 334 337 334 332 328 322 328 322 326 328 329
333 335 338 340 340 341 339 339 338 336 335 335 336 335 339 340 341 339 339 339 340 340 341 341 341 341 340 340 339 338 338 337 336 336 336 334 333 336 336 338 340 337 337 332 333 333 333 334 331 331 333 333 337 338 335 333 332 328 324 319 322 329
333 334 335 337 339 341 340 339 339 338 336 336 337 337 337 338 337 338 338 338 339 340 342 344 340 337 339 338 337 337 338 337 336 334 335 335 335 337 336 335 335 333 334 332 332 335 335 333 333 333 333 334 335 333 332 333 332 331 326 322 321 324
330 332 332 335 338 339 340 340 339 341 338 336 337 337 339 337 337 338 336 337 338 340 339 339 342 340 338 338 338 336 337 337 338 336 335 336 335 335 336 334 334 336 337 334 336 336 335 334 335 333 330 334 333 332 330 330 331 330 328 325 320 323
325 327 330 332 335 335 336 338 338 339 338 337 337 336 337 337 336 336 335 335 335 338 340 339 341 341 340 340 337 337 337 337 338 337 335 335 334 335 334 336 335 334 338 335 335 336 331 333 333 334 334 334 333 333 329 328 329 330 329 325 323 323
325 325 327 329 331 332 334 334 335 334 334 335 336 335 334 334 334 335 335 334 335 336 336 337 339 339 337 337 335 336 337 336 336 336 335 337 337 335 335 336 335 338 335 333 336 334 335 334 335 335 334 333 334 334 334 332 331 332 331 329 327 325
322 324 325 327 328 329 330 332 333 332 333 333 333 333 333 332 334 335 335 335 334 333 335 334 337 338 336 336 337 337 336 336 336 336 337 336 337 335 334 334 335 336 334 332 334 335 332 335 337 334 332 338 334 331 331 332 333 332 332 332 330 326
319 320 322 323 325 327 328 329 331 332 332 333 332 333 332 332 333 333 334 334 334 333 333 335 337 336 335 336 336 337 338 338 336 335 336 337 336 335 332 332 333 335 334 333 335 333 331 334 338 338 334 335 334 333 332 334 331 333 332 331 327 326
317 318 319 320 323 325 326 328 329 331 332 332 332 332 333 333 333 332 333 333 333 333 333 335 337 339 336 336 335 336 336 337 337 336 335 334 334 332 332 332 332 332 333 335 335 335 334 336 336 335 335 335 335 334 333 333 334 335 333 334 331 328
317 318 319 319 322 322 324 326 328 329 330 332 332 332 332 333 333 333 333 333 334 335 335 336 337 338 338 336 336 337 336 335 335 334 332 332 332 331 331 330 331 332 331 334 334 332 332 337 338 336 333 333 335 334 336 333 334 334 333 334 333 332
317 318 319 321 323 323 323 324 325 326 327 328 329 331 331 333 333 334 335 334 333 334 335 336 336 337 337 337 337 336 335 335 334 333 333 332 332 332 332 332 332 332 332 334 334 332 335 335 337 337 334 333 334 335 334 335 335 333 335 335 334 333
Wind_Speed
11 12 10 10 10 11 12 14 14 13 13 12 11 11 11 12 11 11 11 11 12 11 11 10 10 9 12 9 10 11 11 11 9 8 9 10 12 13 12 12 13 13 14 14 13 12 11 10 10 9 9 8 11 3 5 5 5 6 7 7 8 8
8 9 8 5 8 8 10 12 11 13 13 13 13 13 12 12 12 11 12 11 9 8 8 8 8 11 8 10 10 11 11 10 9 8 9 11 12 13 13 13 13 13 14 14 15 9 9 9 9 9 9 10 7 5 3 4 5 6 7 7 8 9
9 12 12 11 8 9 11 9 12 11 10 13 13 13 11 12 11 12 12 10 7 6 7 7 7 7 8 9 11 12 12 11 9 9 10 12 14 13 14 13 13 13 14 17 11 6 6 7 7 9 10 8 4 3 4 4 4 5 7 8 8 10
9 10 11 8 9 9 9 9 9 10 10 10 11 10 10 10 10 10 9 7 5 5 5 5 7 10 11 9 11 12 11 11 10 9 11 10 12 12 14 13 13 14 12 10 5 6 6 6 6 6 3 3 4 5 4 3 4 5 6 8 9 10
10 10 9 7 9 8 9 9 8 8 8 8 9 9 8 9 8 8 8 5 6 5 6 6 7 7 7 8 9 9 9 8 8 8 10 8 8 9 10 10 9 10 6 5 5 5 5 5 4 3 3 3 4 3 4 4 4 5 6 7 8 8
9 10 10 9 9 9 9 8 8 8 8 8 8 7 7 6 7 7 6 6 6 6 6 6 6 6 6 6 8 8 9 8 8 8 8 7 7 8 8 9 9 7 5 5 5 4 5 4 4 4 4 4 4 3 3 4 4 4 6 7 8 8
9 9 10 8 7 7 7 7 7 6 7 7 6 7 6 6 6 7 7 6 6 6 6 5 6 6 6 6 6 7 7 8 8 8 7 7 8 8 8 7 7 5 5 5 5 5 5 4 3 4 4 4 3 3 3 4 4 4 5 6 7 6
7 7 7 7 7 6 7 6 6 7 7 7 7 7 7 6 6 7 7 6 5 6 5 5 6 5 5 6 5 6 7 7 7 7 7 7 7 7 6 6 6 6 6 6 6 6 5 5 4 3 4 4 3 3 3 3 4 4 5 6 7 7
7 8 6 6 6 6 6 7 7 7 7 6 6 6 6 5 5 5 6 6 7 5 5 5 5 6 5 4 4 5 6 6 6 6 6 6 7 5 6 6 6 6 6 6 5 5 5 5 4 4 4 5 4 4 3 3 3 4 4 5 6 7
7 6 5 5 4 3 4 4 5 5 5 6 5 5 5 5 4 4 5 6 6 6 5 5 5 5 5 5 5 5 5 6 6 6 7 8 7 7 6 6 7 6 7 6 6 5 5 5 4 4 4 5 5 4 5 3 4 4 4 4 6 7
5 4 3 3 2 3 3 3 3 3 4 5 4 4 4 4 4 5 5 6 6 7 6 6 5 5 4 5 5 5 5 5 6 6 6 7 7 7 6 6 6 6 6 6 5 5 4 5 4 4 4 4 3 3 3 4 5 4 4 5 6 7
3 3 1 2 2 1 2 2 3 3 3 3 3 3 3 3 4 5 5 6 6 7 6 6 6 5 5 4 5 5 5 6 6 6 6 7 7 7 7 7 7 6 6 5 6 5 4 4 4 4 4 4 3 3 3 3 4 4 4 5 6 7
2 2 1 1 1 1 1 2 2 2 2 1 3 3 3 4 4 4 4 5 6 7 6 7 5 5 5 5 5 5 6 7 7 6 7 7 7 8 7 7 7 7 7 6 5 5 4 4 4 4 3 4 3 3 3 3 4 4 3 5 4 5
1 1 1 0 1 2 1 1 2 2 1 2 3 3 4 4 4 4 4 6 6 5 5 6 5 5 5 5 5 5 6 6 7 9 7 7 6 6 6 7 8 7 7 6 6 6 5 4 4 3 4 4 3 3 3 3 4 4 4 5 4 5
1 1 0 1 3 3 2 2 1 1 2 2 2 3 4 4 4 4 5 5 6 6 10 6 6 5 5 5 5 5 5 6 7 8 8 8 8 7 7 8 8 8 7 7 6 6 6 5 5 4 4 4 4 4 3 3 4 5 4 4 4 4
5 5 4 4 4 3 4 2 2 2 3 4 3 4 4 4 5 5 5 5 5 6 6 5 6 5 5 6 5 6 5 5 7 8 8 8 9 8 8 8 8 8 8 8 7 6 5 5 5 5 4 3 4 4 3 4 4 5 5 5 4 4
7 9 10 9 8 9 7 6 6 5 6 6 6 7 6 6 6 6 7 7 6 5 7 4 8 6 5 6 6 6 5 5 6 7 7 7 9 9 8 8 8 8 8 7 7 8 6 5 5 5 5 4 3 4 3 3 4 4 4 5 5 4
7 8 8 8 8 7 7 7 6 5 6 6 7 7 7 7 7 7 8 8 6 6 5 6 8 6 5 5 6 5 4 5 6 7 7 7 8 9 8 8 9 8 8 8 7 7 7 6 5 5 5 5 4 4 3 3 4 4 5 5 5 5
8 7 6 5 4 4 4 4 3 3 4 6 7 8 8 8 8 8 8 8 7 5 5 7 6 8 5 3 3 5 5 6 6 6 6 7 8 9 9 8 9 8 8 7 7 6 6 6 5 5 5 5 5 5 4 4 5 5 5 5 5 4
4 6 6 5 5 4 4 4 5 4 6 7 8 9 8 9 8 7 7 7 7 5 6 7 8 8 6 5 5 3 5 6 6 6 8 10 10 9 10 9 9 9 9 7 6 6 6 6 5 5 5 5 6 6 6 5 6 5 5 6 5 5
4 5 4 6 7 7 7 6 6 7 9 9 9 9 8 8 8 7 8 8 8 7 8 8 8 7 7 6 5 7 5 6 6 6 7 9 10 10 10 9 8 7 9 8 6 7 7 7 7 5 4 6 6 6 7 7 6 6 6 6 5 5
2 4 4 4 5 6 6 6 7 8 8 8 8 9 9 8 8 7 7 8 8 9 8 8 9 9 8 8 7 6 7 6 5 3 6 7 9 8 9 8 9 8 8 8 7 8 8 8 8 7 7 7 6 6 7 7 8 7 7 6 5 5
0 2 4 6 6 6 7 7 8 7 8 7 6 6 8 8 8 9 9 8 8 8 9 9 10 10 8 8 8 9 8 8 6 4 5 6 5 8 7 12 11 9 7 8 8 8 9 10 8 9 8 8 8 8 6 7 7 7 6 5 5 6
2 3 2 4 5 6 6 6 8 8 6 6 4 6 9 8 8 9 11 10 9 8 9 8 9 10 8 8 8 8 6 6 7 7 7 4 5 9 9 11 10 10 8 9 9 9 10 11 5 8 9 9 8 8 8 8 9 7 7 7 6 6
2 1 2 3 5 6 6 6 6 7 6 7 6 7 8 8 8 9 9 10 10 10 10 10 10 10 8 8 9 9 8 8 8 8 8 7 7 10 8 7 10 9 10 9 10 9 10 10 10 9 7 7 4 7 7 7 10 8 8 7 8 7
6 4 2 2 3 5 5 6 6 6 6 6 6 8 9 8 6 7 8 8 10 10 11 11 11 10 10 10 10 10 11 10 11 9 8 8 7 7 10 8 8 9 12 14 10 10 8 9 11 8 10 6 3 2 6 7 10 8 7 6 7 8
5 3 2 1 2 4 5 6 7 7 7 6 7 8 7 6 6 6 6 8 8 9 10 10 11 10 9 11 10 9 9 11 11 9 7 7 8 9 8 10 10 8 8 7 9 9 10 10 10 11 8 10 5 4 5 6 9 5 8 5 8 9
5 5 5 4 3 4 6 6 7 7 6 7 9 9 7 7 6 6 7 8 7 7 7 8 9 9 8 11 10 10 10 11 11 10 8 8 9 9 8 8 9 9 7 6 7 10 10 10 11 9 11 10 8 6 3 7 8 8 7 9 7 8
6 5 6 6 6 5 5 6 5 5 7 7 7 7 6 6 6 5 7 7 7 6 6 7 7 7 7 9 10 11 12 12 12 12 12 10 9 9 10 10 11 12 10 9 10 13 10 10 11 10 8 10 9 9 8 6 6 7 5 6 8 11
10 8 6 8 7 7 6 4 5 6 7 8 7 7 6 6 6 5 7 7 7 6 6 7 8 9 9 9 9 11 11 12 12 12 12 12 11 12 10 11 12 11 11 12 11 13 10 9 9 9 12 10 9 9 8 8 8 9 9 11 9 11
10 8 9 9 9 8 7 6 4 5 7 9 9 9 8 8 6 6 6 7 7 6 6 6 6 8 9 9 9 11 10 11 11 10 11 12 10 9 9 10 10 12 9 8 7 10 6 7 10 9 10 10 10 10 9 9 8 8 8 7 7 9
10 10 9 9 9 8 8 6 6 6 7 7 9 8 8 8 8 8 7 7 7 7 7 7 6 6 7 7 8 11 11 11 10 11 11 8 7 9 8 8 8 6 8 10 7 9 9 12 12 8 7 9 10 8 9 9 8 8 8 7 7 7
11 10 9 9 9 9 8 8 7 6 6 6 7 7 8 8 8 8 7 7 8 8 8 8 7 7 8 10 9 9 10 10 10 10 9 11 9 11 10 9 10 11 11 10 8 8 7 11 11 10 9 7 8 10 9 10 7 8 8 7 7 6
11 10 9 9 9 9 8 8 8 8 7 6 6 6 6 7 7 7 7 7 8 8 8 8 7 8 7 9 9 10 10 11 11 10 10 9 10 10 9 8 9 10 12 10 9 11 13 15 10 7 5 8 9 9 8 6 4 5 8 9 8 8
11 11 10 9 9 10 9 8 7 8 8 6 6 6 6 6 6 6 7 8 9 8 9 9 8 7 9 8 9 10 12 11 10 8 8 10 9 10 9 8 9 10 10 9 8 8 9 12 10 9 10 10 9 8 7 8 7 9 8 8 8 8
10 10 10 10 10 9 9 9 9 9 8 9 8 7 7 6 6 6 8 8 9 9 9 9 9 8 9 10 11 12 12 12 12 10 9 8 9 10 10 11 11 10 10 9 11 12 14 13 10 11 10 12 9 10 7 9 11 9 8 8 8 8
12 11 12 11 10 10 10 10 10 10 10 10 10 11 10 9 8 8 8 8 9 9 9 9 8 8 9 10 10 10 10 11 12 11 12 11 11 12 11 12 12 11 10 9 9 11 9 11 10 10 8 11 11 8 10 8 9 9 8 7 8 8
Wind_Direction
163 158 158 148 150 152 147 155 149 141 147 144 140 144 146 152 157 160 160 162 165 165 157 148 158 146 139 141 114 127 145 146 145 144 139 138 138 135 131 124 122 120 119 120 120 119 116 118 116 126 134 167 202 213 82 99 107 110 109 109 98 96
166 145 125 152 152 154 154 172 159 152 162 155 153 160 164 167 173 170 176 169 175 169 162 159 154 146 149 132 141 134 142 145 142 137 136 140 136 136 130 127 128 128 125 128 142 138 131 119 123 135 170 193 220 90 100 93 90 98 101 98 102 110
171 148 162 165 160 156 161 169 162 164 161 167 163 178 171 173 176 172 178 174 174 173 167 152 154 155 144 137 125 140 136 139 140 136 135 140 140 132 129 135 135 135 146 160 173 131 141 144 141 163 190 215 97 97 92 97 108 88 86 94 102 104
171 165 164 173 163 160 164 167 169 168 168 168 170 180 178 180 180 173 170 174 177 171 165 150 135 136 136 143 134 134 133 132 140 140 135 136 131 134 135 138 144 153 168 190 132 154 136 138 149 178 169 117 112 117 132 123 94 97 102 101 101 121
170 169 175 159 164 165 167 174 173 169 172 174 176 179 180 183 177 173 172 182 181 169 176 160 160 164 168 153 150 147 149 157 157 152 173 150 155 146 157 156 158 182 182 149 142 119 132 135 154 151 117 105 116 109 102 91 96 103 99 96 99 103
174 177 179 170 179 165 173 178 174 173 175 177 182 178 177 182 171 172 188 182 178 179 188 176 172 174 168 171 161 156 161 158 161 164 184 166 155 174 172 167 175 187 161 149 124 131 123 134 139 137 126 121 117 133 105 100 91 95 102 108 117 127
178 182 186 183 177 168 176 175 178 179 182 176 176 178 182 174 172 177 183 181 182 185 188 189 178 181 188 176 178 166 161 159 166 175 184 182 172 189 179 175 180 172 160 143 145 128 138 133 116 124 118 122 118 109 105 108 115 101 104 111 108 107
180 182 185 182 180 176 173 178 175 178 195 179 183 186 185 177 172 177 180 180 190 193 185 187 187 192 190 190 182 171 167 171 167 182 186 196 187 192 186 185 173 165 164 153 147 150 135 125 134 115 111 109 120 105 94 86 86 96 112 114 127 105
181 185 187 188 185 183 181 186 178 189 196 179 200 195 186 174 180 174 181 185 189 199 195 192 192 189 187 181 178 180 179 177 181 178 176 195 203 191 194 185 174 171 166 157 152 150 143 136 138 135 131 126 95 89 96 106 115 121 108 126 126 115
186 183 174 198 186 179 169 188 188 196 187 187 201 206 181 181 184 183 183 195 190 196 209 197 204 199 186 181 182 182 188 179 180 175 184 192 203 201 193 188 179 177 166 166 159 144 153 143 148 144 140 133 139 136 120 116 121 114 117 106 112 121
181 176 173 201 157 150 197 191 191 198 191 203 198 207 206 196 201 196 191 194 202 200 208 201 210 209 194 189 193 188 191 177 187 181 186 193 202 206 198 193 189 182 171 173 157 151 169 156 151 146 144 126 126 130 115 133 124 113 121 127 124 134
180 159 165 191 141 180 203 212 207 204 213 224 211 230 216 205 211 212 199 188 207 206 203 230 201 204 211 195 207 205 192 191 191 190 191 201 198 205 203 198 196 189 182 171 158 163 166 166 161 155 139 144 127 137 137 130 120 125 129 119 128 132
172 161 196 227 146 266 241 211 214 224 223 227 241 242 238 222 228 219 218 201 223 219 194 224 191 209 211 206 203 204 205 200 191 185 200 202 203 206 205 197 194 193 187 177 170 166 173 170 162 154 151 136 152 151 122 141 130 143 146 127 133 134
69 166 205 224 111 238 207 220 233 226 258 236 241 255 252 252 248 247 227 227 216 246 243 224 202 195 216 218 208 204 208 203 198 192 191 193 198 204 205 204 196 197 192 187 183 173 176 174 164 158 164 151 160 135 156 141 148 144 162 137 141 144
311 153 167 95 229 238 231 276 242 224 198 249 283 274 275 269 254 260 264 243 248 210 229 221 220 191 210 226 212 209 213 210 196 191 193 192 197 199 201 207 199 201 190 196 192 180 184 177 175 175 171 174 155 158 160 150 152 157 164 141 156 152
184 163 163 174 196 222 217 221 270 226 209 212 221 244 237 237 243 233 230 254 240 247 238 230 218 203 205 214 220 214 209 214 194 199 203 196 201 198 198 203 204 203 196 201 196 188 188 179 178 181 168 179 162 164 166 160 176 164 158 171 165 155
171 177 174 174 180 184 192 203 207 209 212 203 211 220 224 221 217 219 223 221 209 213 244 231 247 214 213 211 220 219 220 202 205 208 204 200 207 204 201 199 202 206 207 201 197 194 188 182 182 169 168 170 173 170 172 169 172 174 158 184 151 169
174 180 183 180 183 193 203 211 214 218 218 224 220 218 227 226 219 213 211 214 197 220 211 218 231 227 212 220 228 233 216 197 201 207 204 206 216 213 201 205 200 204 206 207 205 197 190 185 175 172 172 164 168 179 168 182 169 177 177 176 165 175
185 183 183 185 185 221 230 230 236 245 248 245 239 233 233 234 230 232 227 211 208 189 206 226 230 236 219 223 280 233 219 204 203 198 200 209 218 216 208 205 209 199 206 213 215 197 192 177 168 173 174 158 170 181 184 180 178 192 186 171 168 172
162 161 166 179 184 186 196 225 237 238 245 242 242 238 234 244 247 244 241 232 219 187 207 220 229 235 217 197 210 240 249 222 208 196 201 207 211 210 207 202 211 206 197 197 200 183 167 161 158 164 162 160 190 190 180 176 189 196 180 182 174 182
159 167 175 185 196 201 197 206 215 218 230 234 234 237 239 240 245 245 247 237 226 211 211 218 217 221 229 197 194 200 218 251 235 222 215 216 213 211 203 205 205 203 204 198 184 180 168 171 158 154 167 178 192 195 187 181 190 194 191 180 178 182
148 163 191 212 205 212 220 221 220 225 234 240 235 236 242 245 245 244 247 242 237 230 218 215 217 218 214 209 200 205 199 210 229 252 258 240 220 215 204 206 200 200 204 201 196 181 174 178 180 180 178 179 187 187 191 189 197 199 191 176 182 180
283 212 192 209 211 213 214 224 229 233 235 238 243 255 255 252 250 244 239 238 238 238 231 226 221 219 213 212 200 220 207 203 202 206 233 245 246 213 203 211 201 203 194 208 212 188 184 195 192 189 186 186 187 181 189 200 206 208 191 185 185 189
228 255 244 213 237 254 245 237 236 249 242 247 246 235 246 244 241 242 236 232 229 222 230 238 235 222 220 213 205 205 190 183 198 195 195 193 229 246 213 214 206 208 206 204 210 198 192 203 240 184 189 201 187 192 182 198 190 189 192 186 202 194
294 253 252 238 220 244 235 223 231 240 258 254 249 248 244 242 233 235 236 231 228 222 221 229 237 231 221 218 206 203 202 202 199 201 196 196 204 223 235 213 204 208 213 218 203 201 192 200 213 207 203 197 141 206 204 180 187 177 185 193 199 210
26 32 9 270 236 228 219 226 223 227 220 214 239 247 251 252 235 227 237 241 239 227 224 227 231 233 233 233 224 211 199 204 205 203 197 197 191 211 223 214 211 200 213 222 218 198 195 198 216 209 245 294 302 238 197 166 164 180 188 205 196 210
24 6 349 290 233 227 237 240 245 256 266 252 249 253 260 273 274 266 255 247 244 241 237 234 235 225 225 236 233 223 202 207 214 206 197 198 192 204 209 218 212 205 218 233 232 212 201 197 205 211 214 228 221 170 199 198 194 147 181 208 221 198
25 14 15 358 302 233 238 234 240 249 249 253 255 266 264 263 264 266 269 264 256 248 240 244 245 238 232 235 227 225 215 208 211 208 198 197 201 196 200 213 215 214 208 195 254 232 205 199 197 204 205 214 210 222 218 220 203 188 186 178 192 204
13 11 4 340 325 307 262 252 252 261 261 256 262 276 282 276 275 272 262 258 254 245 231 233 237 248 236 245 232 226 226 216 208 211 210 209 205 199 197 202 210 213 193 197 206 232 216 203 203 201 190 215 214 216 215 213 209 188 201 184 179 186
19 0 358 331 331 326 327 292 269 266 268 272 274 279 276 277 272 265 267 269 267 247 230 223 232 236 238 231 246 238 228 224 213 213 212 211 207 204 200 205 210 215 203 209 213 220 218 203 208 199 200 204 201 204 213 207 207 213 206 179 190 187
18 8 355 350 343 344 333 336 316 292 280 277 278 277 279 275 276 278 273 270 266 264 243 237 228 232 236 234 241 247 233 227 219 208 210 209 207 201 198 201 203 219 208 217 216 222 216 231 214 211 202 201 204 203 201 205 200 206 212 207 199 187
18 13 3 357 347 343 336 330 317 309 300 296 299 296 294 289 281 278 273 267 270 264 258 253 236 234 237 230 233 245 237 232 225 209 204 206 203 203 201 199 201 199 203 213 224 252 213 217 214 198 207 216 211 209 200 211 200 202 207 205 208 189
9 6 3 360 351 351 345 338 331 319 302 293 287 284 280 276 276 271 269 270 269 270 269 257 244 243 240 226 223 232 235 228 224 217 203 204 199 201 201 196 201 209 208 203 208 221 252 223 215 216 203 208 215 211 196 215 205 198 207 210 205 198
355 356 352 352 344 346 352 346 333 325 317 302 291 285 279 275 272 276 276 272 270 273 273 265 246 237 230 235 224 225 227 225 221 218 209 202 203 200 198 200 196 203 207 207 208 204 218 228 212 222 294 224 205 209 213 93 257 235 204 207 201 202
348 351 348 347 344 343 342 343 339 330 325 315 299 294 288 282 275 267 262 257 256 257 256 260 254 237 227 227 229 231 231 223 210 202 202 206 204 198 199 209 206 200 205 207 203 213 242 226 206 199 216 244 214 217 201 165 212 219 200 207 204 193
353 346 348 347 346 342 339 337 338 339 331 325 311 288 278 274 274 272 267 261 260 255 255 257 255 245 239 231 225 227 230 227 221 202 196 199 202 201 191 204 206 201 205 206 207 206 219 223 212 195 202 232 232 216 207 197 202 198 212 196 208 198
354 353 353 350 348 340 339 338 339 339 338 331 325 319 308 294 283 276 269 264 261 260 260 261 260 253 247 241 240 237 231 224 218 202 197 198 203 212 203 204 209 206 209 207 212 211 216 226 214 205 214 227 238 231 199 196 211 198 207 214 207 206